When you browse on this site, cookies collect data to enhance your experience and personalize the content and advertising you see.
Visit our Privacy Policy to learn more. By continuing to use the site, you agree to this use of cookies and data.
  • Em Portugal
  • Lista de países
  • Para 7 dias
  • Temperatura da água
  • Mapas de satélite
  • Mapa do tempo
  • Widgets de tempo
  • user-avatar
    Iniciar Sessão

    Previsão horária em Tarija

    Hoje, 19 Novembro, Segunda-feira

    Tempo Temperatura Precipitação Vento Pressão Humidade
    00:00 +15°C° 0.4 mm 1 m/s 599 mmHg 93%
    01:00 +15°C° 0.4 mm 1 m/s 598 mmHg 93%
    02:00 +15°C° 0 mm 1 m/s 598 mmHg 94%
    03:00 +15°C° 0.1 mm 1 m/s 598 mmHg 94%
    04:00 +15°C° 0.1 mm 1 m/s 598 mmHg 93%
    05:00 +15°C° 0.1 mm 1 m/s 598 mmHg 93%
    06:00 +16°C° 0 mm 1 m/s 598 mmHg 89%
    07:00 +18°C° 0 mm 1 m/s 598 mmHg 85%
    08:00 +18°C° 0 mm 2 m/s 599 mmHg 81%
    09:00 +19°C° 0 mm 2 m/s 599 mmHg 74%
    10:00 +21°C° 0 mm 2 m/s 599 mmHg 66%
    11:00 +24°C° 0 mm 3 m/s 600 mmHg 59%
    12:00 +24°C° 0.3 mm 3 m/s 599 mmHg 60%
    13:00 +23°C° 0.3 mm 4 m/s 598 mmHg 60%
    14:00 +25°C° 0.3 mm 4 m/s 598 mmHg 61%
    15:00 +23°C° 0.2 mm 4 m/s 597 mmHg 66%
    16:00 +22°C° 0.2 mm 3 m/s 597 mmHg 71%
    17:00 +21°C° 0.2 mm 3 m/s 596 mmHg 75%
    18:00 +20°C° 0.5 mm 3 m/s 596 mmHg 80%
    19:00 +19°C° 0.5 mm 2 m/s 597 mmHg 85%
    20:00 +18°C° 0.5 mm 2 m/s 597 mmHg 89%
    21:00 +18°C° 0.3 mm 2 m/s 597 mmHg 90%
    22:00 +18°C° 0.3 mm 2 m/s 598 mmHg 90%
    23:00 +19°C° 0.3 mm 1 m/s 598 mmHg 91%

    Amanhã, 20 Novembro, Terça-feira

    Tempo Temperatura Precipitação Vento Pressão Humidade
    00:00 +19°C° 0.1 mm 1 m/s 598 mmHg 91%
    01:00 +19°C° 0.1 mm 1 m/s 597 mmHg 92%
    02:00 +18°C° 0.1 mm 1 m/s 597 mmHg 92%
    03:00 +18°C° 0 mm 1 m/s 597 mmHg 93%
    04:00 +18°C° 0 mm 1 m/s 597 mmHg 94%
    05:00 +18°C° 0 mm 1 m/s 597 mmHg 94%
    06:00 +19°C° 0 mm 1 m/s 597 mmHg 91%
    07:00 +19°C° 0 mm 1 m/s 598 mmHg 87%
    08:00 +20°C° 0 mm 1 m/s 598 mmHg 83%
    09:00 +20°C° 0.1 mm 2 m/s 599 mmHg 79%
    10:00 +21°C° 0.1 mm 2 m/s 599 mmHg 75%
    11:00 +21°C° 0.1 mm 2 m/s 599 mmHg 71%
    12:00 +21°C° 0.2 mm 2 m/s 598 mmHg 72%
    13:00 +21°C° 0.2 mm 3 m/s 598 mmHg 72%
    14:00 +21°C° 0.2 mm 3 m/s 597 mmHg 73%
    15:00 +21°C° 0.2 mm 3 m/s 597 mmHg 75%
    16:00 +21°C° 0.2 mm 3 m/s 596 mmHg 77%
    17:00 +20°C° 0.2 mm 3 m/s 596 mmHg 80%
    18:00 +20°C° 0.2 mm 3 m/s 596 mmHg 83%
    19:00 +19°C° 0.2 mm 2 m/s 597 mmHg 86%
    20:00 +19°C° 0.2 mm 2 m/s 598 mmHg 89%
    21:00 +18°C° 0.3 mm 2 m/s 598 mmHg 89%
    22:00 +18°C° 0.3 mm 2 m/s 599 mmHg 90%
    23:00 +19°C° 0.3 mm 1 m/s 599 mmHg 90%

    Depois de amanhã, 21 Novembro, Quarta-feira

    Tempo Temperatura Precipitação Vento Pressão Humidade
    00:00 +19°C° 0.1 mm 1 m/s 598 mmHg 90%
    01:00 +19°C° 0.1 mm 1 m/s 598 mmHg 91%
    02:00 +19°C° 0.1 mm 1 m/s 597 mmHg 91%
    03:00 +18°C° 0 mm 1 m/s 597 mmHg 91%
    04:00 +18°C° 0 mm 1 m/s 597 mmHg 92%
    05:00 +18°C° 0 mm 1 m/s 597 mmHg 92%
    06:00 +19°C° 0 mm 1 m/s 597 mmHg 86%
    07:00 +20°C° 0 mm 1 m/s 598 mmHg 79%
    08:00 +22°C° 0 mm 1 m/s 599 mmHg 73%
    09:00 +23°C° 0 mm 2 m/s 599 mmHg 66%
    10:00 +25°C° 0 mm 2 m/s 600 mmHg 59%
    11:00 +26°C° 0 mm 3 m/s 600 mmHg 53%
    12:00 +27°C° 0.3 mm 3 m/s 599 mmHg 52%
    13:00 +27°C° 0.3 mm 4 m/s 598 mmHg 51%
    14:00 +28°C° 0.3 mm 4 m/s 598 mmHg 50%
    15:00 +27°C° 0.3 mm 4 m/s 597 mmHg 56%
    16:00 +26°C° 0.3 mm 4 m/s 596 mmHg 63%
    17:00 +23°C° 0.3 mm 4 m/s 595 mmHg 69%
    18:00 +22°C° 0.8 mm 3 m/s 595 mmHg 75%
    19:00 +21°C° 0.8 mm 3 m/s 595 mmHg 82%
    20:00 +20°C° 0.8 mm 2 m/s 596 mmHg 88%
    21:00 +20°C° 1.6 mm 2 m/s 596 mmHg 90%
    22:00 +19°C° 1.6 mm 2 m/s 596 mmHg 91%
    23:00 +19°C° 1.6 mm 2 m/s 597 mmHg 92%

    22 Novembro, Quinta-feira

    Tempo Temperatura Precipitação Vento Pressão Humidade
    00:00 +19°C° 0.4 mm 2 m/s 596 mmHg 91%
    01:00 +19°C° 0.4 mm 2 m/s 595 mmHg 90%
    02:00 +19°C° 0.4 mm 2 m/s 595 mmHg 89%
    03:00 +19°C° 0 mm 2 m/s 595 mmHg 87%
    04:00 +18°C° 0 mm 2 m/s 594 mmHg 86%
    05:00 +19°C° 0 mm 1 m/s 594 mmHg 85%
    06:00 +21°C° 0 mm 1 m/s 595 mmHg 78%
    07:00 +22°C° 0 mm 1 m/s 596 mmHg 70%
    08:00 +24°C° 0 mm 1 m/s 596 mmHg 63%
    09:00 +25°C° 0 mm 2 m/s 597 mmHg 57%
    10:00 +27°C° 0 mm 2 m/s 597 mmHg 51%
    11:00 +28°C° 0 mm 2 m/s 597 mmHg 44%
    12:00 +28°C° 0.9 mm 3 m/s 596 mmHg 47%
    13:00 +28°C° 0.9 mm 3 m/s 596 mmHg 49%
    14:00 +28°C° 0.9 mm 4 m/s 595 mmHg 51%
    15:00 +27°C° 2 mm 4 m/s 594 mmHg 58%
    16:00 +26°C° 2 mm 4 m/s 594 mmHg 65%
    17:00 +23°C° 2 mm 4 m/s 593 mmHg 73%
    18:00 +22°C° 1.8 mm 3 m/s 593 mmHg 77%
    19:00 +21°C° 1.8 mm 2 m/s 594 mmHg 82%
    20:00 +20°C° 1.8 mm 2 m/s 594 mmHg 86%
    21:00 +20°C° 0.7 mm 2 m/s 594 mmHg 87%
    22:00 +21°C° 0.7 mm 1 m/s 595 mmHg 87%
    23:00 +21°C° 0.7 mm 1 m/s 595 mmHg 88%

    23 Novembro, Sexta-feira

    Tempo Temperatura Precipitação Vento Pressão Humidade
    00:00 +20°C° 0.9 mm 1 m/s 595 mmHg 89%
    01:00 +20°C° 0.9 mm 1 m/s 594 mmHg 90%
    02:00 +20°C° 0.9 mm 1 m/s 594 mmHg 90%
    03:00 +18°C° 1.6 mm 2 m/s 594 mmHg 91%
    04:00 +18°C° 1.6 mm 3 m/s 594 mmHg 93%
    05:00 +18°C° 1.6 mm 4 m/s 595 mmHg 94%
    06:00 +18°C° 0.9 mm 4 m/s 595 mmHg 92%
    07:00 +18°C° 0.9 mm 4 m/s 596 mmHg 90%
    08:00 +18°C° 0.9 mm 4 m/s 597 mmHg 88%
    09:00 +19°C° 0.3 mm 4 m/s 597 mmHg 80%
    10:00 +20°C° 0.3 mm 4 m/s 597 mmHg 73%
    11:00 +21°C° 0.3 mm 4 m/s 597 mmHg 66%
    12:00 +22°C° 0 mm 4 m/s 597 mmHg 61%
    13:00 +23°C° 0 mm 4 m/s 597 mmHg 55%
    14:00 +26°C° 0 mm 4 m/s 597 mmHg 49%
    15:00 +25°C° 0.1 mm 4 m/s 596 mmHg 57%
    16:00 +23°C° 0.1 mm 4 m/s 596 mmHg 64%
    17:00 +22°C° 0.1 mm 4 m/s 595 mmHg 71%
    18:00 +21°C° 0.2 mm 4 m/s 595 mmHg 78%
    19:00 +20°C° 0.2 mm 3 m/s 596 mmHg 84%
    20:00 +18°C° 0.2 mm 3 m/s 596 mmHg 90%
    21:00 +18°C° 0.3 mm 3 m/s 596 mmHg 91%
    22:00 +18°C° 0.3 mm 2 m/s 597 mmHg 92%
    23:00 +18°C° 0.3 mm 2 m/s 597 mmHg 92%

    24 Novembro, Sábado

    Tempo Temperatura Precipitação Vento Pressão Humidade
    00:00 +17°C° 0.7 mm 2 m/s 596 mmHg 93%
    01:00 +17°C° 0.7 mm 2 m/s 596 mmHg 93%
    02:00 +17°C° 0.7 mm 2 m/s 596 mmHg 93%
    03:00 +17°C° 0.3 mm 2 m/s 596 mmHg 93%
    04:00 +17°C° 0.3 mm 2 m/s 596 mmHg 94%
    05:00 +17°C° 0.3 mm 2 m/s 596 mmHg 94%
    06:00 +17°C° 0.1 mm 2 m/s 596 mmHg 91%
    07:00 +17°C° 0.1 mm 2 m/s 597 mmHg 89%
    08:00 +19°C° 0.1 mm 1 m/s 597 mmHg 87%
    09:00 +19°C° 0.1 mm 2 m/s 597 mmHg 81%
    10:00 +20°C° 0.1 mm 2 m/s 598 mmHg 75%
    11:00 +23°C° 0.1 mm 2 m/s 598 mmHg 69%
    12:00 +22°C° 0.2 mm 3 m/s 597 mmHg 67%
    13:00 +24°C° 0.2 mm 3 m/s 597 mmHg 64%
    14:00 +25°C° 0.2 mm 4 m/s 596 mmHg 62%
    15:00 +23°C° 0.2 mm 4 m/s 596 mmHg 67%
    16:00 +22°C° 0.2 mm 4 m/s 595 mmHg 71%
    17:00 +21°C° 0.2 mm 4 m/s 595 mmHg 76%
    18:00 +20°C° 0.3 mm 3 m/s 595 mmHg 81%
    19:00 +19°C° 0.3 mm 3 m/s 596 mmHg 86%
    20:00 +18°C° 0.3 mm 3 m/s 596 mmHg 91%
    21:00 +18°C° 0.3 mm 2 m/s 597 mmHg 92%
    22:00 +18°C° 0.3 mm 2 m/s 597 mmHg 92%
    23:00 +18°C° 0.3 mm 2 m/s 597 mmHg 93%
    Mostrar mais